Regional Weather Roundup
Issued by NWS Albany, NY

Home | Current Version | Previous Version | Graphics & Text | Print | Product List | Glossary Off
Versions: 1 2 3 4 5 6 7 8 9 10 11 12 13 14 15 16 17 18 19 20 21 22 23 24 25 26 27 28 29 30 31 32 33 34 35 36 37 38 39 40 41 42 43 44 45 46 47 48 49 50

816
ASUS41 KALY 072010
RWRALY

NEW YORK STATE HOURLY WEATHER ROUNDUP
NATIONAL WEATHER SERVICE ALBANY NY
300 PM EST WED DEC 07 2016

NOTE: "FAIR" INDICATES FEW OR NO CLOUDS BELOW 12,000 FEET WITH NO
SIGNIFICANT WEATHER AND/OR NO OBSTRUCTIONS TO VISIBILITY.

NYZ032-033-038>043-046>054-057>066-NYZ062>081-082-084-072100-
EAST


CITY           SKY/WX    TMP DP  RH WIND       PRES   REMARKS
ALBANY         PTSUNNY   40  36  86 SW5       29.97R
GLENS FALLS    PTSUNNY   39  34  82 S7        29.94R WCI  34
POUGHKEEPSIE   CLOUDY    41  36  82 SW6       29.98R
NEWBURGH       MOSUNNY   41  39  93 W12       29.98R
MONTGOMERY     CLOUDY    42  38  85 SW5       29.97R
WHITE PLAINS   PTSUNNY   43  38  82 W8        29.97R
ISLIP          CLOUDY    44  40  85 NW6       29.97R
NEW YORK CITY  CLOUDY    46  39  76 NW9       29.98R
CENTRAL PARK   CLOUDY    44  38  79 W5        30.00R
$$

NYZ005>009-017-018-044>046-055-056-072100-
CENTRAL


CITY           SKY/WX    TMP DP  RH WIND       PRES   REMARKS
FULTON         PTSUNNY   41  29  62 W12       29.96R
SYRACUSE       PTSUNNY   40  29  64 W8        29.96R WCI  34
ROME           MOSUNNY   39  31  72 W12       29.97R WCI  32
ELMIRA         SUNNY     43  25  49 W6        29.95R
BINGHAMTON     MOSUNNY   37  26  64 W8        29.92S WCI  31
MONTICELLO     PTSUNNY   37  36  93 W9        29.95R WCI  31
$$

NYZ026>034-041>043-087-072100-
NORTH


CITY           SKY/WX    TMP DP  RH WIND       PRES   REMARKS
WATERTOWN      CLOUDY    38  28  67 SW13G23   29.94R WCI  30
FORT DRUM      NOT AVBL
OGDENSBURG     PTSUNNY   42  28  58 SW10G17   29.89R
MASSENA        CLOUDY    41  28  60 W15       29.90R
SARANAC LAKE   MOCLDY    34  27  75 W8        29.84R WCI  27
PLATTSBURGH    PTCLDY    42  29  59 VRB5      29.89R
$$

NYZ001>004-010>016-019>021-085-072100-
WEST


CITY           SKY/WX    TMP DP  RH WIND       PRES   REMARKS
NIAGARA FALLS  PTSUNNY   40  26  57 W24G35    29.97R WCI  29
BUFFALO        PTSUNNY   39  29  67 W17G26    29.97R WCI  30
DUNKIRK        CLOUDY    37  27  67 SW18G26   30.01R WCI  27
JAMESTOWN      MOSUNNY   36  21  55 W12       29.97R WCI  27
WELLSVILLE     SUNNY     39  22  50 W12G18    29.95R WCI  32
ROCHESTER      CLOUDY    40  30  67 W16       29.97R WCI  31
PENN YAN       PTSUNNY   41  24  51 W12       29.96R
$$

             KEY
       WCI = WIND CHILL INDEX
       VSB = VISIBILITY
       HX  = HEAT INDEX
$$




USA.gov is the U.S. government's official web portal to all federal, state and local government web resources and services.